Simultaneous Nadir Overpasses (SNOs) Predictions

Prediction of SNOs between GOES-16 and TERRA Satellite Orbit:

Table of predicted SNOs for the next 14.0 days since TLE Epoch: 7/27/2024
Index Date Time (GOES-16) GOES-16 Lat,Lon TERRA Lat,Lon Distance(km) Time Diff (sec)
1 07/27/2024 14:49:20 -0.01, -75.21 0.25, -76.49 146.19 80
2 07/29/2024 14:34:26 -0.01, -75.22 -0.62, -72.26 336.31 80
3 07/30/2024 02:51:47 0.01, -75.21 -0.37, -77.13 217.07 80
4 08/01/2024 02:36:52 0.00, -75.22 0.48, -72.88 266.01 80
5 08/01/2024 14:54:04 -0.01, -75.23 0.52, -77.72 282.37 80
6 08/03/2024 14:39:09 -0.01, -75.26 -0.36, -73.48 201.61 80
7 08/04/2024 02:56:30 0.02, -75.26 -0.62, -78.35 351.29 80
8 08/06/2024 02:38:55 0.03, -75.29 0.28, -74.11 133.90 80
9 08/06/2024 14:58:47 -0.03, -75.30 0.75, -78.94 413.73 80
10 08/08/2024 14:43:52 -0.03, -75.34 -0.19, -74.71 73.08 80
11 08/09/2024 03:03:52 0.03, -75.35 -0.85, -79.57 479.09 80
